www.pogodaiklimat.ru

Погода и климат >> Архив погоды >> Россия >> Волгоградская область >> Волгоград


АРХИВ ПОГОДЫ в Волгограде

Время (UTC), дата Ветер
(напр.,м/с)
 
Видим.   Явления Облачность Т
(С)
Тd
(С)
f
(%)
Тe
(С)
Тes
(С)
Комфортность P
(гПа)
Po
(гПа)
Тmin
(С)
Tmax
(С)
R
(мм)
R24
(мм)
S
(см)
09 9.07 ЮЗ 9-13
{12}
10 км 6/6 1000 м
[Cb calv]
+27.9 +14.7 44 +30 +31 жарко 1003.6 986.3
12 9.07 З 8-11
{13}
10 км {гроза} 6/6 1000 м
[Cb calv]
+27.0 +15.7 50 +30 +31 душно 1003.9 986.6
15 9.07 З 7-10
{13}
10 км 6/6 1500 м
[Cb calv]
+27.1 +13.0 42 +29 +29 жарко 1004.2 986.9 +28.5
18 9.07 З 3
{13}
10 км 5/0
[Ac trans]
+21.2 +10.1 49 +23 +23 комфорт 1006.4 988.7
21 9.07 З 3 10 км 5/0
[Ci fib]
+17.4 +8.5 56 +17 +17 прохладно 1007.5 989.5
00 10.07 З 2 10 км ясно +14.0 +7.5 65 +14 +14 прохладно 1007.6 989.4
03 10.07 З 2 10 км 5/0
[Ci fib]
+16.0 +8.2 60 +16 +18 холодно 1007.8 989.7 +12.6
06 10.07 З 5 10 км 5/0
[Ci fib]
+21.8 +6.3 37 +23 +28 комфорт 1007.0 989.3
09 10.07 ЮЗ 6
{10}
10 км 8/0
[]
+22.6 +6.5 35 +23 +27 комфорт 1007.4 989.7
12 10.07 ЮЗ 6
{10}
10 км 8/0
[Ac trans]
+24.6 +5.9 30 +24 +27 комфорт 1006.4 988.8
15 10.07 ЮЗ 6-10
{11}
10 км 4/0
[Ac trans]
+24.5 +6.8 32 +25 +25 комфорт 1005.9 988.3 +25.2
18 10.07 ЮЗ 3
{11}
10 км 4/0
[Ac trans]
+18.0 +6.1 46 +18 +18 прохладно 1007.0 989.0
21 10.07 З 2 10 км ясно +15.0 +7.0 59 +15 +15 холодно 1006.8 988.7
00 11.07 Ю 3 10 км 8/0
[Ac trans]
+15.0 +8.5 65 +14 +14 прохладно 1007.0 988.9
03 11.07 Ю 1 10 км {ливн. осадки} 8/0
[Ac trans]
+18.3 +10.2 59 +20 +21 по сезону 1006.4 988.5 +13.4
06 11.07 Ю 5 10 км {ливн. осадки} 8/0
[Ac trans]
+23.0 +11.6 49 +25 +29 комфорт 1006.5 988.9
09 11.07 Ю 6 10 км 9/0
[Ac trans]
+21.6 +11.2 52 +24 +27 комфорт 1006.6 988.9
12 11.07 Ю 4 10 км в посл. час ливневой дождь 9/4 1500 м
[Cb calv Ac trans]
+20.3 +12.5 61 +22 +25 комфорт 1006.0 988.2
15 11.07 З 3 10 км слаб. ливневой дождь 9/5 1500 м
[Cb calv Ac trans]
+17.6 +15.9 90 +18 +18 очень
холодно
1007.5 989.6 +23.6
18 11.07 С 3 10 км слаб. ливневой дождь 9/5 1000 м
[Cb calv Ac trans]
+15.9 +15.2 96 +15 +15 очень
холодно
1007.0 989.0
21 11.07 ЮВ 4 10 км в посл. час ливневой дождь 9/5 2000 м
[Cb calv Ac trans]
+15.7 +14.5 93 +15 +15 холодно 1006.7 988.6
00 12.07 штиль 0 4000 м слаб. ливневой дождь 10/10 210 м
[Cb calv]
+15.8 +15.1 96 +16 +16 прохладно 1006.9 988.9
03 12.07 С 3 4000 м дымка {ливн. осадки} 9/9 1500 м
[Sc]
+15.4 +14.9 97 +15 +15 холодно 1006.0 987.9 +15.2
06 12.07 СЗ 4 4000 м слаб. ливневой дождь 9/9 1500 м
[Cb calv]
+15.1 +14.6 97 +14 +15 очень
холодно
1006.9 988.8 +14.8
09 12.07 С 6 4000 м слаб. ливневой дождь 10/10 180 м
[Cb calv]
+14.2 +13.4 95 +12 +12 очень
холодно
1006.0 987.9
12 12.07 С 6 10 км слаб. ливневой дождь 9/9 300 м
[Cb calv]
+15.7 +14.1 90 +14 +15 очень
холодно
1006.5 988.4
15 12.07 С 5 10 км 8/0
[Ac trans]
+18.3 +13.2 72 +18 +19 очень
холодно
1006.5 988.6 +18.6
18 12.07 СЗ 2 10 км 8/0
[Ac trans]
+15.2 +13.3 88 +15 +15 очень
холодно
1007.8 989.7
21 12.07 З 2 10 км 4/0
[Ci fib]
+13.1 +12.1 94 +12 +12 очень
холодно
1008.0 989.7
00 13.07 З 2 10 км ясно +13.5 +12.5 94 +13 +13 холодно 1007.3 989.1
03 13.07 ЮЗ 2 10 км 4/0
[Ci fib]
+15.4 +14.1 92 +15 +17 холодно 1007.6 989.5 +12.8
06 13.07 Ю 2 10 км 6/0
[Ci fib]
+21.4 +14.3 64 +24 +34 комфорт 1007.7 990.0
09 13.07 ЮЗ 4 10 км 8/4 1000 м
[Cu med, cong Ci fib]
+24.6 +11.9 45 +26 +32 жарко 1007.8 990.2
12 13.07 ЮЗ 5 10 км 9/5 1500 м
[Cb calv Ac trans]
+25.7 +11.5 41 +27 +29 жарко 1006.9 989.4
15 13.07 ЮЗ 7
{12}
10 км гроза, ливневой дождь 9/9 1000 м
[Cb cap]
+17.8 +15.4 86 +17 +17 очень
холодно
1009.9 991.9 +26.7
18 13.07 СВ 2
{12}
10 км в посл. час ливневой дождь {гроза} 8/4 1500 м
[Cb calv Ac trans]
+16.3 +14.5 89 +16 +16 очень
холодно
1009.7 991.6
21 13.07 Ю 3 10 км 8/0
[Ac trans]
+15.4 +13.9 91 +15 +15 холодно 1009.2 991.1
00 14.07 З 3 10 км в посл. час ливневой дождь 6/4 1500 м
[Cb calv Ac trans]
+15.1 +14.0 93 +14 +14 прохладно 1009.1 991.0
03 14.07 Ю 2 10 км 5/0
[Ac trans]
+15.9 +14.9 94 +16 +17 холодно 1009.7 991.6 +14.1
06 14.07 СЗ 1 10 км 4/0
[Ac trans]
+20.2 +15.5 74 +24 +34 комфорт 1009.6 991.8
09 14.07 З 4 10 км 6/6 1500 м
[Cu med, cong]
+22.9 +11.9 50 +25 +30 комфорт 1008.9 991.2
12 14.07 СЗ 3 10 км 6/6 1500 м
[Cu med, cong]
+25.5 +10.5 39 +26 +30 жарко 1007.9 990.4
15 14.07 СЗ 2 10 км 4/4 1500 м
[Cu med, cong]
+25.8 +9.1 35 +26 +27 жарко 1007.5 990.0 +26.4
18 14.07 Ю 2 10 км 3/0
[Ac trans]
+19.5 +13.9 70 +22 +22 комфорт 1008.5 990.6
21 14.07 З 2 10 км ясно +17.2 +13.4 78 +18 +18 прохладно 1008.2 990.2
00 15.07 С 3 10 км 3/0
[]
+15.1 +12.7 86 +14 +14 холодно 1008.0 989.9
03 15.07 С 1 10 км 8/0
[Ci fib]
+16.7 +13.8 83 +18 +19 прохладно 1008.1 990.1 +14.6
06 15.07 В 1 10 км 6/0
[Ci fib]
+24.2 +13.9 53 +27 +38 жарко 1008.3 990.7
09 15.07 Ю 5 10 км гроза без осадков 8/8 1500 м
[Cb cap]
+23.6 +13.4 53 +26 +28 жарко 1008.4 990.8
12 15.07 В 3
{12}
10 км {гроза, ливн. осадки} 5/5 1500 м
[Cu hum]
+27.7 +10.4 34 +28 +33 жарко 1007.2 989.8
15 15.07 ЮВ 4 10 км 9/3 1500 м
[Sc Ac trans]
+26.7 +11.7 39 +28 +28 жарко 1007.6 990.2 +28.2
18 15.07 В 4 10 км 9/0
[Ac trans Ci fib]
+21.9 +14.1 61 +25 +25 комфорт 1008.5 990.8
21 15.07 В 4 10 км 8/0
[Ac trans]
+21.1 +14.3 65 +24 +24 комфорт 1008.6 990.8
00 16.07 В 5 10 км 9/0
[Ac trans]
+20.7 +13.7 64 +23 +23 комфорт 1008.1 990.3
03 16.07 В 5 10 км 9/4 1500 м
[Cb calv Ac trans]
+20.6 +12.9 61 +23 +23 комфорт 1007.8 990.0 +20.0
06 16.07 З 2 10 км слаб. ливневой дождь 9/5 1500 м
[Cb calv Ac trans]
+19.0 +16.1 83 +21 +24 комфорт 1009.6 991.7 +18.9

 

Местоположение метеостанции Волгоград (Волгоградская область, Россия): широта 48.78 долгота 44.37 высота над уровнем моря 134 м.

В архиве по умолчанию представлена погода в Волгограде за последнюю неделю. Архивные данные за месяц целиком и за предыдущие месяцы, начиная с января 2011 года, Вы можете получить, выбрав интересующий диапазон дат из раскрывающегося списка и нажав кнопку "Ввод!".


*Определитесь, кто Вы:
робот инопланетянин человек

Внимание! Время в таблицах - всемирное. Для получения местного времени необходимо прибавить поправку, которая равна 3 ч.

Смотрите также архив погоды в соседних городах и на ближайших метеорологических станциях:

Погода в Волгограде город (Волгоградская область, Россия) (14 км)
Погода в Иловле (Волгоградская область, Россия) (64 км)
Погода в Калаче-на-Дону (Волгоградская область, Россия) (66 км)
Погода в Малых Дербетах (Калмыкия, Россия) (98 км)
Погода в Нижнем Чире (Волгоградская область, Россия) (105 км)
Погода в Ольховке (Волгоградская область, Россия) (122 км)
Погода в Фролове (Волгоградская область, Россия) (124 км)
Погода в Серафимовиче (Волгоградская область, Россия) (148 км)
Погода в Черный Яр (Астраханская область, Россия) (151 км)
Погода в Котельниково (Волгоградская область, Россия) (157 км)

Пояснения к столбцам:

Ветер - указаны скорость ветра в м/с - средняя за 10 мин, порывы в срок и между сроками (в фигурных скобках) и направление, откуда дует ветер: С - северный, СВ - северо-восточный, В - восточный, ЮВ - юго-восточный, Ю - южный, ЮЗ - юго-западный, З - западный, СЗ - северо-западный.
Видимость - горизонтальная дальность видимости в метрах или километрах. При видимости от 1 до 10 км при отсутствии осадков обычно наблюдается дымка, при ухудшении видимости до 1 км и менее - туман. В сухую погоду видимость может ухудшаться дымом, пылью или мглою.
Явления - указаны атмосферные явления, наблюдавшиеся в срок или в последний час перед сроком; фигурными скобками обозначены явления, наблюдавшиеся между сроками (за 1-3 часа до срока); квадратными скобками обозначены град или гололедные отложения с указанием их диаметра в мм.
Облачность - указаны через наклонную черту общая и нижняя облачность в баллах и высота нижней границы облаков в метрах; квадратными скобками обозначены формы облаков: Ci - перистые, Cs - перисто-слоистые, Cc - перисто-кучевые, Ac - высококучевые, As - высокослоистые, Sc - слоисто-кучевые, Ns - слоисто-дождевые, Cu - кучевые, Cb - кучево-дождевые. Подробнее классификацию облаков см. в Атласе облаков (PDF).
T - Температура воздуха - температура, измеренная на высоте 2 м над землей.
Td - Температура точки росы - температура, при понижении до которой содержащийся в воздухе водяной пар достигнет насыщения.
f - Относительная влажность воздуха - влажноcть воздуха, измеренная на высоте 2 м над землей.
Te - Эффективная температура - температура, которую ощущает одетый по сезону человек в тени. Характеристика душности погоды. При расчете учитывается влияние влажности воздуха и скорости ветра на теплоощущения человека.
Tes - Эффективная температура на солнце - температура, которую ощущает человек, с поправкой на солнечный нагрев. Характеристика знойности погоды. Зависит от высоты солнца над горизонтом, облачности и скорости ветра. Ночью, в пасмурную погоду, а также при ветре 12 м/с и более поправка равна нулю.
P - Атмосферное давление - приведенное к уровню моря атмосферное давление.
Po - Атмосферное давление - измеренное на уровне метеостанции атмосферное давление.
Tmin - Минимальная температура - минимум температуры воздуха на высоте 2 м над землей.
Tmax - Максимальная температура - максимум температуры воздуха на высоте 2 м над землей.
R - Количество осадков - Количество выпавших осадков за период времени, мм. При наведении курсора мыши на число - период времени, за который выпало указанное количество осадков.
R24 - Количество осадков - Количество выпавших осадков за 24 часа, мм.
S - Снежный покров - Высота снежного покрова, см. При наведении курсора мыши на число - состояние снежного покрова и степень покрытия местности в баллах.